Location: Unspecified
(44.0704°N, 88.6889°W)
Time: 11:32:05
(UTC+02:00)

Altair - Pass Details

Date: 21 June 2019
Orbit: 1501 x 1683 km, 47.2° (Epoch: 24 August)

Event Time Altitude Azimuth Distance (km) Brightness Sun altitude
Rises 03:08:58 0° 215° (SW) 4,675 10.1 4.1°
Reaches altitude 10° 03:12:07 10° 209° (SSW) 3,716 9.6 3.6°
Maximum altitude 03:20:57 47° 139° (SE) 2,010 7.8 2.2°
Drops below altitude 10° 03:30:08 10° 70° (ENE) 3,865 9.3 0.8°
Sets 03:33:27 0° 65° (ENE) 4,877 9.8 0.3°
